Reading, PA

4:13 PM EST on December 09, 2019 (GMT -0500)
Reading Regional-Spaatz

Weather History for KRDG - August, 2019

Change the Weather History Date:

Thursday, August 29, 2019

  Actual Average Record
Temperature  
Mean Temperature 71 °F 71 °F  
Max Temperature 82 °F 82 °F 98 °F (1973)
Min Temperature 60 °F 61 °F 42 °F (1982)
Degree Days  
Heating Degree Days 0 0  
Month to date heating degree days 0 0  
Since 1 June heating degree days 16 25  
Since 1 July heating degree days 0 1  
Cooling Degree Days 6 6  
Month to date cooling degree days 308 238  
Year to date cooling degree days 1046 790  
Since 1 June cooling degree days 941 730  
Growing Degree Days 21 (Base 50)    
Moisture  
Dew Point 59 °F    
Average Humidity 80    
Maximum Humidity 100    
Minimum Humidity 38    
Precipitation  
Precipitation 0.00 in 0.12 in 1.70 in (1978)
Month to date precipitation 1.93 3.42  
Year to date precipitation 40.22 28.74  
Sea Level Pressure  
Sea Level Pressure 29.94 in    
Wind  
Wind Speed 4 mph ()    
Max Wind Speed 21 mph    
Max Gust Speed 30 mph    
Visibility 7.3 miles    
Events Fog    
T = Trace of Precipitation, MM = Missing Value Source: Averaged Metar Reports

Daily Weather History Graph

Daily Weather History Graph

Search for Another Location

Airport or City:

Astronomy

Aug. 29, 2019 Rise Set
Actual Time 6:28 AM EDT 7:40 PM EDT
Civil Twilight 5:59 AM EDT 8:08 PM EDT
Nautical Twilight 5:26 AM EDT 8:42 PM EDT
Astronomical Twilight 4:50 AM EDT 9:17 PM EDT
Moon 5:10 AM EDT (8/29) 7:36 PM EDT (8/29)
Length of Visible Light 14h 08m
Length of Day
13h 12m
Waning Crescent, 1% of the Moon is Illuminated
Aug 29
Waning Crescent
Aug 30
New
Sep 5
First Quarter
Sep 14
Full
Sep 21
Last Quarter

Hourly Weather History & Observations

Time (EDT) Temp. Heat Index Dew Point Humidity Pressure Visibility Wind Dir Wind Speed Gust Speed Precip Events Conditions
12:54 AM 64.0 °F - 64.0 °F 100% 29.89 in 10.0 mi NW 3.5 mph - N/A   Clear
1:54 AM 63.0 °F - 63.0 °F 100% 29.89 in 10.0 mi Calm Calm - N/A   Clear
2:54 AM 63.0 °F - 63.0 °F 100% 29.89 in 10.0 mi NNW 3.5 mph - N/A   Mostly Cloudy
3:36 AM 62.1 °F - 62.1 °F 100% 29.90 in 10.0 mi WNW 5.8 mph - N/A   Mostly Cloudy
3:54 AM 64.0 °F - 64.0 °F 100% 29.91 in 10.0 mi WNW 6.9 mph - N/A   Scattered Clouds
4:48 AM 60.8 °F - 60.8 °F 100% 29.91 in 1.8 mi Calm Calm - N/A   Clear
4:54 AM 61.0 °F - 61.0 °F 100% 29.92 in 0.8 mi Calm Calm - N/A   Clear
5:01 AM 61.0 °F - 61.0 °F 100% 29.91 in 2.5 mi Calm Calm - N/A   Clear
5:08 AM 62.1 °F - 62.1 °F 100% 29.91 in 7.0 mi Calm Calm - N/A   Clear
5:19 AM 62.1 °F - 62.1 °F 100% 29.91 in 1.8 mi Calm Calm - N/A   Clear
5:30 AM 61.0 °F - 61.0 °F 100% 29.91 in 1.2 mi Calm Calm - N/A   Partly Cloudy
5:42 AM 61.0 °F - 61.0 °F 100% 29.91 in 0.8 mi Calm Calm - N/A   Mist
5:52 AM 60.8 °F - 60.8 °F 100% 29.91 in 0.5 mi Calm Calm - N/A Fog Fog
5:54 AM 61.0 °F - 61.0 °F 100% 29.92 in 0.8 mi Calm Calm - N/A   Mist
5:57 AM 61.0 °F - 61.0 °F 100% 29.91 in 1.2 mi NW 3.5 mph - N/A   Partly Cloudy
6:04 AM 61.0 °F - 61.0 °F 100% 29.91 in 3.0 mi NW 4.6 mph - N/A   Partly Cloudy
6:54 AM 61.0 °F - 61.0 °F 100% 29.94 in 10.0 mi Calm Calm - N/A   Clear
7:54 AM 66.0 °F - 64.0 °F 93% 29.94 in 10.0 mi West 4.6 mph - N/A   Clear
8:54 AM 70.0 °F - 63.0 °F 78% 29.95 in 10.0 mi West 10.4 mph - N/A   Clear
10:54 AM 75.9 °F - 62.1 °F 62% 29.99 in 10.0 mi NNW 11.5 mph - N/A   Clear
11:54 AM 78.1 °F - 57.0 °F 48% 29.98 in 10.0 mi North 12.7 mph - N/A   Partly Cloudy
12:54 PM 79.0 °F - 53.1 °F 40% 29.97 in 10.0 mi NNW 11.5 mph - N/A   Partly Cloudy
1:54 PM 81.0 °F 80.7 °F 55.0 °F 41% 29.97 in 10.0 mi WNW 17.3 mph 29.9 mph N/A   Scattered Clouds
2:54 PM 81.0 °F 80.4 °F 53.1 °F 38% 29.96 in 10.0 mi WNW 19.6 mph 24.2 mph N/A   Scattered Clouds
3:54 PM 80.1 °F 79.9 °F 53.1 °F 39% 29.95 in 10.0 mi NW 11.5 mph - N/A   Scattered Clouds
4:54 PM 80.1 °F 79.9 °F 53.1 °F 39% 29.96 in 10.0 mi WNW 12.7 mph - N/A   Scattered Clouds
5:54 PM 79.0 °F - 54.0 °F 42% 29.96 in 10.0 mi WNW 11.5 mph - N/A   Scattered Clouds
6:54 PM 77.0 °F - 55.0 °F 47% 29.97 in 10.0 mi WNW 9.2 mph - N/A   Clear
7:54 PM 73.0 °F - 55.9 °F 55% 29.98 in 10.0 mi Calm Calm - N/A   Clear
8:54 PM 70.0 °F - 57.9 °F 65% 30.00 in 10.0 mi SSW 3.5 mph - 0.00 in   Clear
9:54 PM 66.0 °F - 57.9 °F 75% 30.01 in 10.0 mi SSW 3.5 mph - 0.00 in   Clear
10:54 PM 62.1 °F - 59.0 °F 90% 30.02 in 10.0 mi Calm Calm - N/A   Clear
11:54 PM 64.0 °F - 59.0 °F 84% 30.02 in 10.0 mi SSW 3.5 mph - N/A   Clear